Tracking 35237 objects as of 4-Sep-2026
HD Live streaming from Space Station
objects crossing your sky now

STARLINK-37720

Track STARLINK-37720 now!
10-day predictions
STARLINK-37720 is classified as:


NORAD ID: 69129
Int'l Code: 2026-110F
Launch date: May 20, 2026
Source: United States (US)
Launch site: AIR FORCE WESTERN TEST RANGE (AFWTR)
Your satellite tracking list
Your tracking list is empty




NASA's NSSDC Master Catalog

Two Line Element Set (TLE):
1 69129U 26110F   26247.51316110  .00012157  00000-0  37808-3 0  9991
2 69129  97.2868  82.7564 0001242 101.5297 258.6085 15.33461251 17761
Source of the keplerian elements: AFSPC